Meteo Giornale » Osservazioni meteo Stati Uniti (USA) » Rochester Skyhaven
ore: 17:51 - Osservazioni Meteo Rochester Skyhaven
Lat. 43° 16' N Lon. 70° 55' W Alt. 98 metri s.l.m.
21 °C
Nuvoloso
Temp. 24 Ore
13 °C
22 °C
Sud/Sud-Est
9.3 Km/h
Dew point 17 °C
Umidità 77 %
Visibilità 10 Km
Il sole sorge alle ore 06:08
Il sole tramonta alle ore 19:19
| Data e Ora | Cielo e Fenomeni | T °C | DP °C | Um. % | Pres. hPa | Vis. km | Vento km/h | |
|---|---|---|---|---|---|---|---|---|
| Oggi h: 17:51 | Nuvoloso | 21 | 17 | 77 | 1018 | 10 | S/SE 9.3 | |
| Oggi h: 16:51 | Coperto | 21 | 16 | 73 | 1018 | 10 | E/SE 9.3 | |
| Oggi h: 16:31 | Coperto | 21 | 16 | 73 | 1018 | 10 | E/SE 9.3 | |
| Oggi h: 15:51 | Coperto | 22 | 17 | 73 | 1018 | 10 | E 9.3 | |
| Oggi h: 15:30 | Coperto | 22 | 16 | 68 | 1018 | 10 | N 9.3 | |
| Oggi h: 15:17 | Coperto | 22 | 16 | 68 | 1018 | 10 | N 5.5 | |
| Oggi h: 14:51 | Coperto | 21 | 16 | 73 | 1018 | 10 | SE 9.3 | |
| Oggi h: 14:37 | Coperto | 21 | 15 | 68 | 1018 | 10 | E/SE 9.3 | |
| Oggi h: 13:51 | Coperto | 22 | 15 | 64 | 1018 | 10 | SE 9.3 | |
| Oggi h: 12:51 | Molto Nuvoloso | 21 | 14 | 64 | 1018 | 10 | N 5.5 | |
| Oggi h: 11:51 | Coperto | 19 | 13 | 68 | 1018 | 10 | N 0 | |
| Oggi h: 11:28 | Molto Nuvoloso | 19 | 13 | 68 | 1018 | 12 | N 5.5 | |
| Oggi h: 10:51 | Sereno | 18 | 14 | 77 | 1018 | 10 | N 0 | |
| Oggi h: 09:51 | Coperto | 17 | 14 | 82 | 1018 | 10 | N 0 | |
| Oggi h: 08:51 | Poco Nuvoloso | 16 | 14 | 87 | 1018 | 10 | N 0 | |
| Oggi h: 07:51 | Coperto | 16 | 14 | 87 | 1018 | 10 | N 0 | |
| Oggi h: 06:51 | Coperto | 15 | 13 | 87 | 1018 | 10 | N 0 | |
| Oggi h: 05:51 | Nuvoloso | 14 | 12 | 87 | 1017 | 10 | N 5.5 | |
| Oggi h: 04:51 | Coperto | 13 | 12 | 93 | 1017 | 10 | N 0 | |
| Oggi h: 03:51 | Poco Nuvoloso | 13 | 12 | 93 | 1017 | 10 | NO 9.3 | |
| Oggi h: 02:51 | Poco Nuvoloso | 13 | 13 | 100 | 1017 | 10 | NO 7.4 | |
| Oggi h: 01:51 | Sereno | 14 | 13 | 93 | 1018 | 10 | NO 9.3 | |
| Oggi h: 00:51 | Sereno | 14 | 13 | 93 | 1018 | 10 | N 5.5 | |
| Ieri h: 23:51 | Sereno | 15 | 13 | 87 | 1018 | 10 | N 0 | |
| Ieri h: 22:51 | Sereno | 15 | 13 | 87 | 1018 | 10 | N 0 | |
| Ieri h: 21:51 | Poco Nuvoloso | 16 | 13 | 82 | 1018 | 10 | N 0 | |
| Ieri h: 20:51 | Nuvoloso | 17 | 13 | 77 | 1018 | 10 | N 0 | |
| Ieri h: 19:51 | Sereno | 18 | 13 | 72 | 1018 | 10 | N 0 | |
| Ieri h: 18:51 | Sereno | 20 | 14 | 68 | 1018 | 10 | S/SE 9.3 | |



